RH
52 51 49 47 42 29 26 28 26 28 27 26 26 24 22 22 24 23 25 26 28 35 34 35 40 42 44 45 46 50 53 55 55 59 61 56 46 41 40 43 43 42 42 42 44 45 48 55 61 66 70 67 64 61 57 56 55 54 53 50 46 41 37 33 31 29 24 21 20 18 15 15 16 17 17 16 15 15 16 17 18 20 23 26 26 25 21 19 23 27 24 18 13 13 13 14 14
53 51 51 49 45 31 27 29 27 31 29 24 25 22 20 20 22 22 25 27 30 36 35 37 41 43 45 44 45 48 54 57 55 57 58 55 48 40 39 41 41 38 37 39 42 42 46 54 59 64 66 64 62 60 55 54 53 52 52 48 43 38 34 28 22 19 18 16 14 13 13 14 16 17 17 18 18 19 18 19 17 18 22 26 26 23 22 26 26 25 24 20 16 15 15 15 16
53 51 52 51 47 33 28 29 27 31 27 23 24 22 20 19 22 24 24 27 32 34 35 39 41 43 45 45 47 48 54 58 57 60 59 55 50 44 41 41 39 37 36 39 40 40 43 50 56 59 60 60 60 58 54 53 51 50 50 44 38 33 28 20 15 15 17 17 13 16 17 15 16 17 17 18 19 18 18 17 17 18 22 26 28 23 25 29 27 25 23 21 18 16 16 17 17
54 52 52 52 48 37 34 34 31 30 24 24 24 20 21 20 21 22 23 28 30 28 31 37 41 44 46 46 49 50 56 60 58 60 58 54 51 48 46 42 41 37 36 39 40 40 42 46 52 54 54 57 58 56 53 50 48 47 44 37 31 27 21 15 13 14 14 15 15 18 19 16 17 18 17 18 18 18 19 17 16 17 21 27 30 26 25 27 27 27 24 20 18 17 17 17 18
56 54 52 52 50 42 37 36 34 28 23 24 21 19 20 20 21 21 24 28 24 21 26 33 41 46 47 49 51 52 55 58 58 57 54 52 50 51 49 45 42 38 37 39 40 41 42 44 50 51 50 54 57 54 49 44 42 39 35 30 26 21 14 13 16 16 13 15 17 17 15 15 16 17 16 16 15 17 18 16 16 16 20 26 30 27 24 24 24 23 21 17 17 18 18 18 19
57 55 53 53 50 44 37 33 31 28 25 23 19 18 19 19 20 22 25 28 23 19 22 30 37 43 48 51 52 51 53 55 57 56 54 52 50 51 49 47 44 40 39 40 41 42 42 45 50 50 47 52 56 53 43 36 34 32 30 27 21 15 11 13 16 16 15 15 17 17 14 12 14 14 13 14 15 16 16 15 17 18 21 25 28 26 22 23 23 21 19 17 17 18 18 18 19
58 57 54 53 51 48 42 35 33 30 25 22 18 19 18 17 20 23 27 27 23 18 20 28 32 37 43 47 49 49 51 53 55 55 55 53 51 51 48 47 46 42 41 41 43 43 42 46 49 49 49 52 54 47 35 30 30 29 27 23 16 11 9 12 14 16 16 16 20 21 17 12 11 13 13 15 16 15 15 16 17 18 19 22 24 23 21 23 22 20 19 18 18 18 18 19 18
58 58 56 56 56 55 50 39 35 31 24 22 20 19 17 16 20 25 27 22 18 17 20 26 28 32 36 39 44 46 48 51 54 54 54 52 50 51 49 47 47 45 44 43 44 43 43 47 49 50 53 54 50 40 29 26 27 24 21 17 12 9 9 12 14 16 16 17 23 21 17 13 11 11 12 13 13 13 16 18 17 16 16 17 20 20 20 21 20 19 18 18 18 18 18 19 18
58 58 57 57 58 57 53 41 33 30 26 24 21 19 17 16 22 25 24 19 16 18 21 24 23 23 30 36 40 44 47 50 54 54 52 49 49 51 50 48 48 48 46 44 44 43 43 47 49 50 51 50 43 33 24 22 20 16 15 11 10 9 9 11 13 16 16 18 20 15 13 15 13 11 10 11 11 13 16 17 16 15 15 15 17 19 19 19 18 18 18 18 18 18 18 18 18
60 59 58 60 59 55 53 43 33 29 26 23 20 19 19 19 22 22 20 18 16 19 22 22 19 20 27 35 40 44 48 51 54 53 50 48 48 50 50 49 48 48 46 45 44 43 43 46 46 44 44 41 33 26 19 17 14 12 11 9 9 9 9 10 10 13 15 16 17 12 11 16 16 12 10 11 11 13 14 15 15 14 15 15 16 16 17 18 18 18 18 18 18 18 18 18 18
61 59 59 62 61 57 54 47 37 32 27 24 21 20 22 21 20 19 18 17 18 20 22 20 19 24 28 33 38 43 47 51 52 50 50 47 47 49 50 49 47 46 45 45 43 41 41 42 40 39 40 35 26 21 15 12 11 9 9 8 8 8 8 9 9 10 12 13 15 13 11 13 15 12 10 11 12 13 13 13 14 14 15 16 16 16 16 17 18 18 19 18 18 18 18 17 18
62 62 64 66 63 59 59 52 40 33 28 25 22 21 23 21 19 18 17 16 19 21 20 18 18 23 29 32 34 41 45 47 49 48 48 46 46 49 50 49 46 44 44 43 40 38 37 36 36 37 38 29 21 18 12 9 8 7 8 8 8 8 8 9 8 9 9 10 13 14 12 11 12 11 11 12 12 12 13 13 13 14 15 16 16 17 17 18 18 19 19 18 18 18 18 18 18
64 65 67 67 64 61 61 56 44 32 26 23 21 21 24 21 18 17 16 16 18 19 18 17 17 20 28 29 30 37 41 43 46 47 46 44 46 48 49 48 44 42 41 40 37 35 34 33 33 33 30 21 18 16 10 8 7 7 8 8 8 8 8 8 8 9 9 9 11 12 12 12 11 11 12 12 12 12 12 12 13 14 15 15 16 17 18 18 18 19 19 18 18 18 18 18 19
65 64 66 68 67 64 62 58 47 32 23 22 21 22 24 22 18 17 16 17 18 17 15 16 18 18 22 25 26 30 35 39 43 46 45 44 46 47 48 46 43 41 40 39 36 34 33 31 29 26 21 15 16 14 10 8 7 8 8 8 8 8 9 9 9 9 9 10 10 11 12 12 11 11 11 12 12 12 12 12 13 14 14 15 16 17 17 18 18 18 18 19 19 19 19 19 19
66 63 67 70 67 64 62 60 52 35 25 23 22 22 24 22 19 16 16 17 16 15 14 17 19 16 15 20 22 24 28 33 38 42 44 43 45 47 47 46 43 41 40 39 36 33 30 27 24 21 16 13 15 13 9 8 8 9 8 8 9 8 9 9 9 10 10 11 11 12 12 12 12 11 12 12 12 12 12 12 13 13 14 15 16 16 17 17 17 17 18 18 19 19 19 19 19
68 62 67 69 65 63 62 62 58 40 27 24 22 23 24 21 18 16 16 16 15 15 16 17 19 16 13 15 16 20 25 29 33 37 38 38 41 43 45 45 41 38 37 36 34 30 26 22 21 19 15 14 15 13 9 8 9 9 8 9 9 9 10 10 10 10 11 11 11 11 11 11 11 11 11 11 11 11 12 12 13 13 13 14 15 16 16 16 17 17 18 18 18 19 18 18 18
68 65 66 67 65 64 63 63 58 41 30 24 21 23 23 22 19 16 16 16 15 15 15 17 18 16 15 14 13 18 24 26 31 33 33 31 32 36 38 38 36 33 32 31 30 27 24 22 20 16 14 15 15 12 9 9 9 9 9 10 10 10 11 11 11 11 12 12 12 11 11 11 11 11 11 11 11 11 11 12 12 13 13 13 13 14 15 16 16 16 17 17 18 18 17 18 17
70 72 67 64 67 65 63 64 57 45 33 25 21 22 23 22 19 17 17 16 16 16 15 16 18 17 16 15 14 18 22 24 30 32 32 29 27 29 30 31 30 28 28 28 27 25 24 22 19 15 14 14 14 11 9 9 10 10 11 11 12 12 12 13 13 13 13 12 12 12 12 12 12 12 11 11 12 11 12 11 11 12 12 12 12 13 14 15 15 16 16 16 16 17 17 17 18
71 76 71 67 69 65 62 62 57 49 37 27 22 21 22 22 20 18 17 18 18 19 17 17 19 18 17 15 15 19 22 23 27 30 32 30 27 27 27 27 25 23 23 24 24 24 22 21 18 16 15 14 13 11 10 12 12 13 13 14 14 14 15 15 16 16 16 15 15 14 14 14 14 14 14 13 13 13 13 13 12 11 11 11 11 12 13 13 14 14 15 15 16 17 17 18 19
69 73 73 71 69 65 61 59 56 52 42 32 24 21 22 21 20 19 17 19 22 20 17 17 19 17 16 16 15 18 22 23 25 28 30 30 28 27 26 25 23 22 21 21 21 21 20 19 17 16 16 14 12 12 12 13 14 15 16 17 17 18 18 18 18 18 19 18 18 18 18 17 17 17 17 16 16 16 16 15 14 13 12 11 11 12 12 13 14 14 15 16 17 18 19 20 20
67 70 73 70 67 66 62 58 56 53 46 38 27 21 21 20 19 20 17 17 20 18 14 14 14 12 13 15 16 17 22 24 25 26 28 28 27 27 25 24 23 21 19 19 18 18 18 17 16 16 16 15 13 13 13 14 16 17 18 19 20 21 21 21 21 21 21 21 21 21 20 20 20 20 20 19 19 19 19 18 17 17 17 16 15 15 15 16 17 17 18 19 20 21 22 22 23
63 69 72 69 66 66 62 59 57 53 48 42 34 22 19 19 18 19 18 14 14 14 13 12 11 11 11 13 15 17 20 23 24 24 25 25 24 24 24 23 22 20 18 17 17 17 16 16 16 16 16 16 15 14 14 15 17 18 20 22 23 23 24 24 24 24 23 23 23 23 23 23 22 22 22 21 21 21 21 20 21 21 21 21 21 21 21 21 21 22 22 23 24 25 26 27 27
63 66 69 69 68 67 64 62 58 55 50 44 39 29 19 19 18 18 18 14 12 12 12 11 11 11 12 12 15 16 18 21 22 21 21 22 22 21 22 22 21 19 17 16 16 16 16 15 15 16 16 16 16 16 15 15 17 19 21 23 24 24 25 25 25 25 25 25 25 25 25 26 25 25 24 24 23 22 23 22 23 24 24 25 25 25 25 25 25 26 27 28 28 29 30 30 30
64 65 65 69 71 69 67 64 60 56 51 44 42 35 23 19 19 18 16 13 12 12 11 11 11 11 13 14 15 15 15 17 20 19 18 20 20 19 19 20 20 18 17 16 16 16 16 15 15 15 16 16 17 16 17 17 18 19 21 23 24 24 25 26 26 25 25 25 25 26 27 28 28 28 27 27 26 25 25 25 25 26 27 28 28 28 28 29 29 29 30 31 30 30 29 29 30
61 62 64 71 74 73 71 68 62 57 52 46 44 40 28 20 19 17 16 13 12 12 12 11 11 11 12 14 15 15 15 15 18 20 19 19 20 20 19 18 19 18 17 16 16 16 16 16 16 15 15 16 17 17 17 18 19 20 21 22 23 24 24 25 26 25 25 26 26 27 27 28 29 29 29 28 28 28 28 27 27 28 29 30 29 29 30 31 32 31 31 32 32 30 27 28 29
58 59 63 70 74 75 75 72 66 59 53 49 47 43 33 24 19 17 15 13 13 12 12 12 11 10 11 13 13 14 15 15 17 19 19 19 21 21 20 19 19 17 17 17 17 16 16 16 16 15 15 16 17 17 18 18 19 20 20 21 22 23 24 24 24 24 25 25 26 27 27 28 28 29 28 28 28 29 29 29 30 30 30 31 31 32 32 32 33 32 31 31 32 31 28 29 31
58 59 61 65 70 76 77 75 71 63 56 50 49 46 38 29 22 16 15 14 13 12 12 12 11 11 11 12 13 13 14 14 14 16 19 20 20 20 20 20 19 18 19 19 19 18 18 18 17 17 16 17 17 17 18 18 19 20 20 21 22 22 23 23 23 24 24 25 25 26 26 27 27 27 28 28 28 29 29 30 30 30 31 31 32 32 33 33 33 32 32 32 32 31 31 31 33
59 59 60 62 66 72 77 78 74 67 60 53 51 49 42 36 26 16 16 15 13 13 11 12 12 11 11 12 13 13 14 14 15 16 17 17 17 17 18 19 19 19 20 20 20 20 21 20 19 18 18 18 17 17 18 19 19 19 20 21 21 22 22 22 23 23 23 24 24 25 25 26 26 26 27 27 28 28 29 29 30 30 30 30 30 31 32 33 32 32 33 32 32 32 32 31 31
60 58 63 67 66 70 78 80 76 70 65 56 54 52 46 42 29 17 18 16 14 13 12 12 12 11 11 12 13 14 14 15 17 16 15 14 14 15 16 17 18 18 19 19 20 22 22 21 21 20 20 19 18 18 18 19 19 19 20 20 21 22 22 22 22 22 23 23 24 24 25 25 25 26 26 27 27 27 28 28 28 27 27 27 27 29 30 30 30 31 31 30 31 31 30 29 30
60 59 64 67 67 73 77 78 75 71 67 59 55 53 49 46 34 23 22 18 14 13 12 12 12 12 11 11 12 14 15 16 16 14 13 13 14 15 15 16 16 17 18 19 20 21 21 22 22 22 21 20 19 18 18 19 19 19 19 20 20 21 21 22 22 22 23 23 23 23 24 25 25 25 26 28 28 27 26 26 25 25 24 24 24 25 25 25 25 26 26 27 27 27 28 27 28
60 59 62 64 68 76 77 75 74 72 68 62 57 53 51 48 39 31 27 21 16 14 13 12 12 12 11 11 12 13 15 15 13 13 14 14 14 14 15 15 16 17 17 18 19 20 20 21 22 22 22 21 21 19 19 19 19 20 20 20 20 20 21 21 21 22 22 23 23 23 24 25 25 25 26 28 29 27 25 24 24 24 24 23 23 23 22 23 22 21 22 23 24 26 27 27 28
63 59 62 63 67 75 78 76 74 73 71 66 59 53 52 49 43 37 30 25 20 14 13 12 11 12 11 11 11 12 13 14 13 14 14 14 14 14 14 15 15 16 16 17 18 19 20 20 21 21 21 22 21 21 20 20 20 21 20 21 20 20 21 21 21 21 22 23 24 24 24 25 26 26 27 27 28 27 26 26 25 25 25 25 25 24 24 24 23 21 22 24 23 25 27 28 29
64 63 64 62 64 71 76 77 74 73 73 69 60 52 51 50 46 41 34 30 25 18 14 12 11 11 11 11 11 11 12 12 13 13 14 14 14 14 13 14 15 15 15 16 18 19 20 20 20 20 20 21 21 22 21 21 21 22 22 21 21 21 22 22 21 21 22 23 24 25 26 27 27 27 27 27 28 28 29 30 29 27 28 29 28 26 26 26 26 24 24 26 25 25 27 28 28
64 64 63 59 59 62 68 73 71 71 72 71 63 54 52 53 48 42 36 33 31 24 16 13 13 11 11 11 11 11 11 11 11 10 11 12 12 13 13 14 14 15 15 16 17 18 19 20 20 21 20 21 21 22 22 21 22 23 23 23 22 22 22 23 22 22 23 24 25 27 27 28 28 28 28 29 29 29 29 30 30 30 31 31 29 27 27 28 29 27 25 26 26 26 28 29 30
59 58 57 53 51 55 62 66 65 65 69 72 67 57 54 55 51 43 38 34 33 29 20 15 15 13 12 12 11 10 10 10 9 9 9 10 10 12 13 13 14 14 15 16 17 17 18 19 20 21 21 21 21 22 22 22 22 23 24 24 23 23 23 24 24 24 25 26 26 26 27 27 27 27 28 29 29 29 29 29 30 31 32 31 29 28 29 30 31 30 27 28 28 28 27 29 30
54 52 51 50 51 55 58 60 60 59 64 70 70 63 57 55 52 44 39 36 35 32 24 17 15 14 13 12 11 10 10 9 9 9 9 9 10 10 12 13 13 14 14 15 16 17 17 18 19 20 21 21 22 22 22 22 22 22 23 23 23 22 22 24 25 26 28 28 27 26 25 25 25 26 29 30 29 29 30 30 30 31 31 31 30 29 30 30 30 30 30 30 31 29 27 28 29
53 52 51 52 56 59 58 57 58 57 61 67 69 66 60 57 54 46 39 36 35 34 29 20 14 13 13 11 11 11 10 9 9 9 9 9 10 10 11 12 13 13 14 14 15 16 16 17 18 19 19 21 21 21 21 21 21 21 21 21 21 21 22 23 24 25 27 28 28 25 23 24 26 27 28 29 29 30 30 31 31 30 31 30 29 30 29 29 30 30 30 30 31 30 27 28 31
54 54 54 57 60 62 59 57 56 55 58 62 63 64 60 56 55 49 40 37 36 35 33 26 17 13 12 12 11 10 10 10 10 9 9 9 9 9 10 10 11 12 12 13 13 14 15 16 16 17 18 20 20 20 20 20 21 20 20 20 20 21 22 23 23 23 25 27 27 26 23 24 27 28 28 27 28 29 29 29 29 29 30 29 28 29 28 29 30 28 29 30 30 28 27 30 32
55 56 57 62 63 63 62 57 55 54 55 57 58 61 60 54 52 50 43 37 36 35 33 32 24 15 12 12 11 10 10 10 10 9 8 9 9 9 9 9 10 11 11 12 12 12 13 14 15 16 17 18 19 20 20 19 20 20 20 20 21 22 22 22 23 24 26 27 28 28 27 26 27 28 28 26 25 26 26 27 28 28 29 28 28 29 28 28 28 27 30 32 30 26 28 30 31
57 58 60 62 61 64 64 57 53 54 56 58 57 58 59 55 51 48 45 39 36 35 32 33 30 21 13 12 11 11 10 10 9 8 8 8 8 8 9 9 9 10 10 10 10 11 12 12 13 14 15 17 18 19 19 19 20 21 21 22 23 24 23 24 25 25 26 27 29 31 31 31 29 28 27 26 25 24 26 28 28 28 30 29 28 29 28 26 27 27 29 30 29 28 30 31 31
62 61 63 65 62 62 63 57 55 57 59 59 59 60 59 58 54 47 45 42 38 36 32 32 34 26 15 12 12 11 11 11 10 8 8 8 8 8 8 9 9 9 9 9 9 9 10 10 10 12 13 15 16 18 19 20 21 22 22 23 25 26 25 24 24 24 24 27 29 31 31 31 31 29 27 28 29 26 27 28 26 29 32 30 30 31 29 26 26 27 29 30 32 33 34 34 32
70 67 66 68 65 64 63 62 62 64 64 60 59 63 57 56 57 49 46 45 41 37 33 33 36 30 19 13 12 12 11 11 11 9 8 8 7 8 8 8 9 9 9 9 9 8 8 9 9 10 11 12 14 16 18 20 21 22 22 22 24 25 24 21 20 21 22 25 27 28 28 27 28 28 27 29 30 28 28 29 28 30 31 30 31 31 29 27 27 31 33 33 35 35 35 35 32
77 71 69 68 65 66 65 66 68 67 67 61 58 63 59 54 54 51 50 49 43 39 35 35 38 33 23 15 12 13 12 11 11 9 8 8 7 8 8 8 8 9 9 9 9 9 8 8 9 9 10 10 12 14 16 18 20 21 21 20 21 23 22 20 18 19 21 23 25 26 27 27 27 27 25 26 26 28 32 32 28 28 28 28 29 31 31 28 28 33 36 35 36 36 34 30 29
76 68 68 68 65 67 66 68 71 68 66 60 56 61 62 55 51 51 53 51 46 41 36 37 39 35 28 19 13 12 12 11 11 10 9 8 8 8 7 8 8 8 8 8 9 9 8 8 9 9 9 10 10 12 14 15 16 18 19 19 20 21 21 20 21 22 22 23 25 27 28 28 28 26 24 23 22 26 33 31 27 28 30 30 30 31 32 31 31 34 35 34 34 32 29 26 25
68 66 69 69 67 70 71 71 72 69 65 59 57 62 64 55 48 51 53 48 46 42 38 38 37 35 32 24 15 12 12 12 11 10 10 9 8 8 8 8 8 8 8 8 8 9 9 9 9 9 9 9 9 10 12 13 14 16 17 18 19 20 21 22 24 26 26 25 25 27 28 28 27 26 25 24 22 24 28 28 29 32 33 33 31 30 30 32 35 32 29 28 27 26 25 23 22
65 67 70 70 71 72 75 75 73 72 66 60 63 67 66 58 48 49 49 43 42 42 41 40 36 33 33 28 19 14 13 12 11 11 11 10 9 8 8 8 8 8 8 8 8 9 9 9 10 10 10 9 9 9 10 11 13 15 16 17 19 19 21 24 26 28 28 26 26 27 28 29 29 27 26 25 24 24 25 27 32 35 34 34 31 27 28 31 32 28 26 26 25 24 23 21 20
68 71 70 72 75 75 78 77 74 75 67 60 66 68 67 62 47 43 44 40 41 44 44 42 36 31 32 31 23 16 14 13 12 12 11 11 10 8 9 9 9 8 8 8 8 8 9 9 10 10 10 10 10 10 10 10 11 13 15 16 17 19 21 23 26 28 28 27 27 27 29 30 30 29 28 27 27 27 26 27 31 33 34 33 29 26 27 28 27 25 24 24 23 22 20 19 19
71 74 73 74 77 76 78 76 74 76 65 57 62 65 65 58 42 38 41 39 43 47 47 46 41 34 31 31 24 17 16 14 14 14 12 12 11 9 9 9 9 9 8 8 8 8 8 9 10 10 11 11 11 11 10 10 11 12 14 15 17 19 20 22 25 27 27 27 27 28 29 30 30 30 28 28 29 27 25 26 28 28 28 28 26 27 26 24 23 22 21 22 21 20 18 18 19
72 72 71 74 78 78 78 75 74 72 60 50 54 59 58 48 39 38 38 38 42 45 46 48 46 41 35 31 24 18 16 15 15 15 14 13 11 10 10 9 9 9 9 9 8 8 8 9 9 9 9 10 10 10 10 10 11 11 12 14 16 18 20 21 24 26 27 28 29 29 30 29 29 28 27 28 29 27 26 26 26 25 25 25 26 26 24 22 21 21 21 21 19 18 18 19 20
64 63 65 68 70 74 75 71 70 67 57 49 49 51 48 41 40 38 35 37 39 40 43 44 45 44 39 33 26 19 16 15 14 15 15 14 13 11 10 10 10 9 9 9 8 8 8 8 9 8 8 8 8 9 9 10 10 10 12 14 15 17 18 20 23 25 26 28 29 29 30 30 28 27 26 27 28 28 28 27 26 24 24 24 24 23 21 21 21 21 20 19 18 19 20 21 21
61 58 60 62 58 62 64 61 62 61 55 50 50 50 43 35 36 35 32 34 35 35 38 40 43 44 41 37 29 22 17 14 14 14 14 15 14 12 11 10 10 9 10 9 9 8 8 8 8 8 8 8 8 8 8 8 9 10 11 13 14 16 18 19 22 24 26 28 30 30 30 29 27 25 26 28 28 28 27 25 24 23 21 21 21 21 21 21 21 20 19 19 19 20 21 21 21
68 63 64 64 58 57 58 56 55 54 54 51 48 47 39 32 32 32 32 33 31 32 33 35 40 43 43 40 33 24 19 15 14 13 14 14 14 13 11 10 9 9 9 10 9 8 8 8 8 8 7 8 7 7 7 7 8 9 10 12 14 16 18 21 22 24 26 28 29 30 30 29 27 26 28 31 29 29 28 25 23 21 20 21 21 21 21 21 20 19 18 20 21 21 22 22 20
67 66 66 62 59 59 58 56 52 51 57 53 43 39 35 33 33 31 31 31 28 29 30 31 34 39 43 43 39 30 21 16 15 13 14 14 14 13 12 11 9 9 9 9 9 9 8 8 8 8 8 7 8 8 8 8 8 9 10 12 14 17 20 21 22 24 27 29 29 29 30 30 28 26 28 31 30 31 31 25 22 21 21 22 21 21 22 21 19 18 19 21 22 22 22 20 19
62 64 60 55 61 63 60 59 55 53 58 53 42 38 36 38 37 30 27 28 27 28 30 31 30 32 38 41 42 38 27 19 16 14 14 14 14 14 13 11 10 9 9 9 10 9 8 8 7 8 8 7 8 8 8 9 9 9 11 12 15 18 19 21 23 26 29 30 30 29 29 29 27 27 29 29 29 32 30 25 22 22 21 22 22 22 21 19 18 19 20 22 22 22 21 20 20
58 57 54 55 63 63 59 60 60 59 60 53 44 39 35 36 35 29 27 28 29 29 29 30 29 29 32 35 39 42 35 25 19 17 15 14 14 14 13 12 11 10 10 10 10 10 9 8 8 8 8 8 8 8 9 9 9 10 12 14 16 18 19 22 25 29 30 30 30 28 27 28 29 31 32 30 28 29 27 23 22 22 22 23 23 22 20 18 19 20 21 22 22 21 21 20 21
59 57 56 58 60 59 58 59 58 59 59 55 50 44 35 33 33 30 30 30 31 31 29 29 30 30 31 31 32 37 38 31 23 20 18 15 15 15 14 13 12 12 12 11 10 10 10 9 9 8 8 8 9 9 9 10 10 11 13 16 18 19 21 23 26 29 29 29 31 29 27 28 31 34 34 32 30 27 24 22 23 23 23 24 23 21 19 19 20 21 22 22 21 21 21 22 23
57 59 61 61 58 57 58 58 56 57 59 59 57 49 36 30 30 28 27 27 28 29 32 33 32 31 31 31 30 33 36 34 26 21 20 18 16 15 15 14 14 13 13 12 11 11 10 10 10 9 9 9 9 9 10 10 11 12 15 17 19 20 22 24 28 30 29 29 31 30 27 30 34 35 34 34 31 26 22 22 23 24 24 24 22 20 19 20 21 22 21 21 21 22 23 24 25
54 55 58 60 59 58 59 58 54 51 54 56 55 49 34 28 30 26 23 25 25 26 32 36 36 33 32 30 30 31 34 35 31 25 21 20 19 18 17 17 16 16 15 14 13 12 12 12 11 11 10 10 10 11 11 12 12 14 17 19 20 21 22 24 28 30 31 30 30 29 28 31 34 35 34 32 28 23 22 23 24 25 25 23 21 20 21 21 22 21 21 21 22 23 25 26 27